Weather History for Ottumwa, IA

Change the Weather History Date:

Sunday, November 16, 2014

  Actual Average Record
Temperature  
Mean Temperature 19 °F 39 °F  
Max Temperature 27 °F 49 °F 77 °F (1931)
Min Temperature 10 °F 30 °F 1 °F (1959)
Degree Days  
Heating Degree Days 46 26  
Month to date heating degree days 455 353  
Since 1 July heating degree days 990 877  
Cooling Degree Days 0 0  
Month to date cooling degree days 0 0  
Year to date cooling degree days 801 938  
Moisture  
Dew Point 16 °F    
Average Humidity 77    
Maximum Humidity 92    
Minimum Humidity 61    
Precipitation  
Precipitation 0.01 in 0.08 in 1.53 in (2009)
Month to date precipitation 0.20 1.38  
Year to date precipitation 39.16 34.70  
Sea Level Pressure  
Sea Level Pressure 30.10 in    
Wind  
Wind Speed 9 mph (WSW)    
Max Wind Speed 18 mph    
Max Gust Speed 24 mph    
Visibility 7 miles    
Events Snow    
T = Trace of Precipitation, MM = Missing Value Source: NWS Daily Summary

Daily Weather History Graph

Daily Weather History Graph

Search for Another Location

Airport:

Trip Planner

Search our weather history database for the weather conditions in past years. The results will help you decide how hot, cold, wet, or windy it might be!

Date:

Astronomy

Nov. 16, 2014 Rise Set
Actual Time 6:58 AM CST 4:49 PM CST
Civil Twilight 6:29 AM CST 5:19 PM CST
Nautical Twilight 5:55 AM CST 5:52 PM CST
Astronomical Twilight 5:23 AM CST 6:25 PM CST
Moon 1:02 AM CST (11/16) 1:46 PM CST (11/16)
Length of Visible Light 10h 50m
Length of Day
9h 51m
Waning Crescent, 31% of the Moon is Illuminated
Nov 16
Waning Crescent
Nov 22
New
Nov 29
First Quarter
Dec 6
Full
Dec 14
Last Quarter

Hourly Weather History & Observations

Time (CST) Temp. Windchill Dew Point Humidity Pressure Visibility Wind Dir Wind Speed Gust Speed Precip Events Conditions
12:53 AM 25.0 °F 17.1 °F 21.9 °F 88% 30.17 in 7.0 mi South 6.9 mph - N/A   Overcast
1:53 AM 25.0 °F 17.1 °F 21.9 °F 88% 30.17 in 6.0 mi South 6.9 mph - 0.00 in Snow Light Snow
2:05 AM 25.0 °F 18.1 °F 23.0 °F 92% 30.13 in 2.0 mi South 5.8 mph - 0.00 in Snow Light Snow
2:12 AM 25.0 °F 17.1 °F 23.0 °F 92% 30.13 in 1.8 mi SSW 6.9 mph - 0.00 in Snow Light Snow
2:21 AM 25.0 °F 16.3 °F 23.0 °F 92% 30.12 in 2.5 mi SSW 8.1 mph - 0.00 in Snow Light Snow
2:31 AM 25.0 °F 17.1 °F 23.0 °F 92% 30.12 in 3.0 mi South 6.9 mph - 0.00 in Snow Light Snow
2:53 AM 25.0 °F 16.3 °F 23.0 °F 92% 30.16 in 5.0 mi SSW 8.1 mph - 0.00 in Snow Light Snow
3:53 AM 25.0 °F 17.1 °F 23.0 °F 92% 30.12 in 5.0 mi South 6.9 mph - 0.00 in Snow Light Snow
4:53 AM 26.1 °F 20.5 °F 23.0 °F 88% 30.12 in 4.0 mi SW 4.6 mph - 0.01 in Snow Light Snow
5:10 AM 26.1 °F 20.5 °F 23.0 °F 88% 30.09 in 4.0 mi SW 4.6 mph - 0.00 in Snow Light Snow
5:53 AM 26.1 °F 19.4 °F 23.0 °F 88% 30.10 in 6.0 mi WSW 5.8 mph - 0.00 in   Overcast
6:53 AM 25.0 °F 16.3 °F 21.9 °F 88% 30.10 in 7.0 mi West 8.1 mph - N/A   Overcast
7:53 AM 25.0 °F 11.7 °F 21.0 °F 85% 30.12 in 6.0 mi WNW 17.3 mph 20.7 mph N/A   Overcast
8:13 AM 24.1 °F 11.0 °F 19.0 °F 81% 30.10 in 6.0 mi WNW 16.1 mph - N/A   Haze
8:30 AM 23.0 °F 10.1 °F 18.0 °F 81% 30.10 in 6.0 mi WNW 15.0 mph 24.2 mph N/A   Haze
8:44 AM 21.9 °F 8.7 °F 18.0 °F 85% 30.11 in 6.0 mi WNW 15.0 mph - N/A   Overcast
8:53 AM 21.9 °F 9.2 °F 18.0 °F 85% 30.14 in 5.0 mi WNW 13.8 mph 21.9 mph N/A   Overcast
9:28 AM 21.0 °F 8.6 °F 16.0 °F 81% 30.11 in 6.0 mi WNW 12.7 mph - N/A   Haze
9:53 AM 19.9 °F 7.9 °F 16.0 °F 85% 30.15 in 6.0 mi West 11.5 mph - N/A   Overcast
10:53 AM 21.0 °F 9.9 °F 15.1 °F 78% 30.14 in 7.0 mi WNW 10.4 mph - N/A   Overcast
11:53 AM 19.9 °F 8.6 °F 14.0 °F 78% 30.13 in 7.0 mi WNW 10.4 mph - N/A   Overcast
12:53 PM 19.9 °F 9.3 °F 14.0 °F 78% 30.11 in 7.0 mi West 9.2 mph - N/A   Overcast
1:11 PM 19.9 °F 7.9 °F 12.9 °F 74% 30.06 in 9.0 mi WSW 11.5 mph - N/A   Scattered Clouds
1:53 PM 21.2 °F 10.1 °F 12.2 °F 68% 30.04 in 10.0 mi West 10.4 mph - N/A   Clear
2:53 PM 21.9 °F 11.0 °F 12.9 °F 68% 30.07 in 10.0 mi West 10.4 mph - N/A   Clear
3:53 PM 19.9 °F 10.1 °F 10.9 °F 68% 30.05 in 10.0 mi WSW 8.1 mph - N/A   Clear
4:53 PM 18.0 °F 6.1 °F 7.0 °F 62% 30.06 in 10.0 mi West 10.4 mph - N/A   Clear
5:53 PM 15.1 °F 3.3 °F 7.0 °F 70% 30.07 in 10.0 mi West 9.2 mph - N/A   Clear
6:53 PM 10.9 °F 0.2 °F 3.0 °F 70% 30.06 in 10.0 mi SW 6.9 mph - N/A   Clear
7:53 PM 12.9 °F 0.7 °F 5.0 °F 71% 30.06 in 10.0 mi West 9.2 mph - N/A   Clear
8:53 PM 12.9 °F -0.2 °F 5.0 °F 71% 30.05 in 10.0 mi West 10.4 mph - N/A   Clear
9:53 PM 12.9 °F -0.2 °F 5.0 °F 71% 30.05 in 10.0 mi West 10.4 mph - N/A   Clear
10:53 PM 12.9 °F 0.7 °F 5.0 °F 71% 30.04 in 10.0 mi WNW 9.2 mph - N/A   Clear
11:53 PM 12.9 °F 1.6 °F 6.1 °F 74% 30.04 in 10.0 mi West 8.1 mph - N/A   Clear